OBJECT A, 51824

Orbit data source: Space-Track

You're viewing an Uncataloged Satellite

Recently launched and/or uncataloged satellites may have evolving metadata. Metadata may include but not limited to: Owner, Maufacturer, Bus, Motor, and Mission.

OBJECT A, 51824 is a satellite owned by Weina (CN) in SSO that was launched on Sun, 27 Feb 2022 UTC via a CHANG ZHENG 8 launch vehicle from the Wenchang Satellite Launch Center (WSC). Unknown objects in Earth's orbit typically refer to objects detected orbiting the Earth but have not yet been identified or cataloged. These objects could be anything from previously untracked satellites, spent rocket stages, debris from satellite collisions, or even natural meteoroids temporarily captured by Earth's gravity.

Loading next visibility...
Identifier
51824, 2022-019A
Orbit
SSO
Last TLE update
7 hours ago
Origin
Flag of CNWEINA (CN / PRC)
Manufacturer
Weina
Mission
Non-operational Commercial Radar Imaging
Bus & Motor
MN200, Unknown motor
Mass
350 kg wet, 350 kg dry
Launch date (UTC)
2022-02-27 (3 years ago)
Launch vehicle
CHANG ZHENG 8
Launch site
Wenchang Satellite Launch Center (WSC)
Object type
Unknown
Shape & HBR
Box + 3 Pan, 6 m
Radar Cross Section
3.533 m², Large (>1 m²)

Expand to show TLE details & history

TLE from 7 hours ago
0 OBJECT A
1 51824U 22019A   25115.51736165  .00052156  00000-0  98908-3 0  9998
2 51824  97.3909 195.2074 0011165 198.6659 161.4183 15.48094853175188
Epoch: 2025-04-25T12:25Z
Definitive object data (Epoch: 2025-04-25T12:25:00.046Z)
Latitude
-0.00007°
Longitude
155.18391°
Altitude
432.628 km
Speed
7.648 km/s
True Right ascension
13h 00m 49s
True Declination
0° 00' 00"
Sunlit
Object was in full shadow at TLE epoch
Visualization TLE readout
Latitude
-82.64962°
Longitude
-114.38169°
Altitude
448.305 km
Speed
7.643 km/s
Apparent Right ascension
15h 35m 13s
Apparent Declination
-63° 30' 48"
Sunlit
Object is in daylight
Visualization observer readout
Local Sidereal Time
03:02:53
Azimuth
188.842° SSW
Elevation
-65.921°
Doppler factor
1
Orbital elements
Apogee altitude
426.817 km
Perigee altitude
411.638 km
Semi-major axis
6,797.364 km
Eccentricity
0.0011165
Inclination
97.3909°
RAAN
195.2074°
Arg. of periapsis
198.6659°
True anomaly
161.45902°
Mean anomaly
161.4183°
Eccentric anomaly
161.43866°
Mean motion
3.87286 °/min
BSTAR
0.00098908
Orbital period
92.95 mins
Loading maneuver chart data...
Loading SW <> Apogee altitude chart data...
Loading historical data...
Loading historical data...
Loading historical data...
Loading historical data...
Loading historical data...
Loading historical data...
Loading historical data...

OBJECT A Visibility forecast

Observer location: undefined°, undefined°

Span
Click to sort rows by Start time (UTC) header in descending order
Start Az.
Max El. time (UTC)
Max El. Az.
Max El.
End time (UTC)
End Az.
6 mins2025-04-26 05:36:03.712Z185.582° SSW2025-04-26 05:39:03.712Z258.64° W35.928°2025-04-26 05:42:03.712Z334.922° NNW
4 mins2025-04-26 18:28:03.712Z340.618° N2025-04-26 18:29:03.712Z301.98° NW34.753°2025-04-26 18:32:03.712Z213.103° SW
|